JBU1185 KJFK-KRDU

Flight info

Callsign JBU1185
Flight time 1h 9m
Altitude 36000
Route MELTN ALDAN4
Aircraft A320/M-SDE3FGHIRWY/LB1

Departure

Time 2026-05-06 00:18
Airport John F. Kennedy International Airport (KJFK)

Arrival

Time 2026-05-06 01:27
Airport Raleigh-Durham International Airport (KRDU)
Time Latitude Longitude Altitude Speed Heading
2026-05-05 23:35 40.64668 -73.77545 51 ft 0 kts 238°
2026-05-06 00:01 40.64676 -73.77528 23 ft 4 kts 238°
2026-05-06 00:01 40.64687 -73.77504 25 ft 3 kts 238°
2026-05-06 00:01 40.64702 -73.77474 24 ft 4 kts 244°
2026-05-06 00:02 40.64708 -73.77444 24 ft 4 kts 292°
2026-05-06 00:02 40.64697 -73.77418 25 ft 2 kts 301°
2026-05-06 00:02 40.64696 -73.77417 25 ft 0 kts 301°
2026-05-06 00:04 40.64707 -73.77440 24 ft 6 kts 302°
2026-05-06 00:04 40.64735 -73.77502 23 ft 10 kts 300°
2026-05-06 00:04 40.64780 -73.77600 23 ft 15 kts 301°
2026-05-06 00:05 40.64902 -73.77766 23 ft 6 kts 324°
2026-05-06 00:05 40.64933 -73.77807 22 ft 0 kts 351°
2026-05-06 00:06 40.64937 -73.77806 22 ft 3 kts
2026-05-06 00:06 40.64985 -73.77775 20 ft 12 kts 30°
2026-05-06 00:06 40.65048 -73.77706 17 ft 10 kts 85°
2026-05-06 00:06 40.65016 -73.77627 19 ft 10 kts 121°
2026-05-06 00:07 40.64981 -73.77551 19 ft 10 kts 121°
2026-05-06 00:07 40.64977 -73.77466 20 ft 10 kts 49°
2026-05-06 00:07 40.65043 -73.77427 20 ft 11 kts 15°
2026-05-06 00:07 40.65116 -73.77380 22 ft 11 kts 30°
2026-05-06 00:08 40.65121 -73.77296 20 ft 11 kts 122°
2026-05-06 00:08 40.65078 -73.77204 20 ft 13 kts 122°
2026-05-06 00:08 40.65032 -73.77099 21 ft 14 kts 121°
2026-05-06 00:08 40.64981 -73.76988 21 ft 15 kts 121°
2026-05-06 00:09 40.64926 -73.76866 21 ft 16 kts 120°
2026-05-06 00:09 40.64872 -73.76745 22 ft 10 kts 116°
2026-05-06 00:09 40.64913 -73.76672 21 ft 12 kts 32°
2026-05-06 00:09 40.64993 -73.76607 21 ft 15 kts 31°
2026-05-06 00:10 40.65086 -73.76535 23 ft 11 kts 38°
2026-05-06 00:10 40.65092 -73.76460 24 ft 6 kts 113°
2026-05-06 00:10 40.65090 -73.76453 24 ft 0 kts 117°
2026-05-06 00:12 40.65089 -73.76452 24 ft 1 kts 117°
2026-05-06 00:12 40.65071 -73.76413 23 ft 8 kts 121°
2026-05-06 00:13 40.65031 -73.76354 22 ft 6 kts 162°
2026-05-06 00:13 40.64998 -73.76375 23 ft 0 kts 211°
2026-05-06 00:13 40.64998 -73.76376 23 ft 0 kts 211°
2026-05-06 00:14 40.64997 -73.76376 23 ft 2 kts 211°
2026-05-06 00:14 40.64896 -73.76459 23 ft 35 kts 211°
2026-05-06 00:15 40.64606 -73.76700 19 ft 62 kts 208°
2026-05-06 00:15 40.64151 -73.77037 24 ft 87 kts 211°
2026-05-06 00:15 40.63574 -73.77487 25 ft 106 kts 210°
2026-05-06 00:15 40.62899 -73.78015 26 ft 119 kts 211°
2026-05-06 00:16 40.62203 -73.78605 140 ft 113 kts 212°
2026-05-06 00:16 40.61557 -73.79181 258 ft 111 kts 213°
2026-05-06 00:16 40.60912 -73.79775 232 ft 117 kts 215°
2026-05-06 00:16 40.60240 -73.80411 258 ft 121 kts 217°
2026-05-06 00:17 40.59577 -73.81050 452 ft 115 kts 219°
2026-05-06 00:17 40.58923 -73.81741 460 ft 127 kts 221°
2026-05-06 00:17 40.58228 -73.82501 411 ft 131 kts 223°
2026-05-06 00:17 40.57557 -73.83264 594 ft 127 kts 224°
2026-05-06 00:18 40.56932 -73.84089 694 ft 126 kts 227°
2026-05-06 00:18 40.56342 -73.84989 582 ft 137 kts 232°
2026-05-06 00:18 40.55698 -73.85988 1094 ft 143 kts 223°
2026-05-06 00:18 40.54859 -73.86916 1758 ft 173 kts 206°
2026-05-06 00:19 40.53554 -73.86955 2485 ft 216 kts 166°
2026-05-06 00:19 40.52208 -73.85724 3269 ft 256 kts 143°
2026-05-06 00:19 40.50986 -73.83896 4266 ft 275 kts 135°
2026-05-06 00:19 40.49827 -73.81870 5341 ft 286 kts 133°
2026-05-06 00:20 40.48635 -73.79727 6423 ft 295 kts 132°
2026-05-06 00:20 40.47397 -73.77549 7490 ft 300 kts 133°
2026-05-06 00:20 40.46117 -73.75365 8381 ft 303 kts 133°
2026-05-06 00:20 40.44801 -73.73193 9273 ft 305 kts 133°
2026-05-06 00:21 40.43454 -73.71021 10111 ft 308 kts 134°
2026-05-06 00:21 40.42049 -73.68790 10488 ft 328 kts 134°
2026-05-06 00:21 40.40534 -73.66408 10720 ft 351 kts 134°
2026-05-06 00:21 40.38965 -73.63939 11164 ft 362 kts 135°
2026-05-06 00:22 40.37346 -73.61384 11866 ft 366 kts 135°
2026-05-06 00:22 40.35714 -73.58798 12579 ft 370 kts 134°
2026-05-06 00:22 40.34067 -73.56189 13317 ft 373 kts 134°
2026-05-06 00:22 40.32399 -73.53551 13982 ft 378 kts 134°
2026-05-06 00:23 40.30716 -73.50890 14593 ft 382 kts 134°
2026-05-06 00:23 40.29014 -73.48196 15204 ft 385 kts 134°
2026-05-06 00:23 40.27297 -73.45487 15822 ft 388 kts 134°
2026-05-06 00:23 40.25564 -73.42760 16420 ft 391 kts 134°
2026-05-06 00:24 40.23798 -73.40100 17014 ft 393 kts 139°
2026-05-06 00:24 40.21723 -73.37791 17635 ft 391 kts 149°
2026-05-06 00:24 40.19498 -73.35717 18255 ft 395 kts 149°
2026-05-06 00:24 40.17247 -73.33617 18798 ft 399 kts 149°
2026-05-06 00:25 40.14913 -73.31658 19339 ft 398 kts 158°
2026-05-06 00:25 40.12330 -73.30447 19883 ft 393 kts 173°
2026-05-06 00:25 40.09627 -73.30101 20449 ft 389 kts 187°
2026-05-06 00:25 40.06967 -73.30624 20985 ft 386 kts 200°
2026-05-06 00:26 40.04500 -73.31951 21503 ft 384 kts 213°
2026-05-06 00:26 40.02337 -73.33972 22024 ft 383 kts 224°
2026-05-06 00:26 40.00336 -73.36213 22532 ft 386 kts 224°
2026-05-06 00:26 39.98289 -73.38506 23016 ft 389 kts 224°
2026-05-06 00:27 39.96226 -73.40817 23498 ft 393 kts 224°
2026-05-06 00:27 39.94143 -73.43141 23917 ft 396 kts 224°
2026-05-06 00:27 39.92041 -73.45481 24304 ft 399 kts 224°
2026-05-06 00:27 39.89921 -73.47843 24696 ft 402 kts 224°
2026-05-06 00:28 39.87788 -73.50221 25076 ft 405 kts 224°
2026-05-06 00:28 39.85641 -73.52615 25457 ft 408 kts 224°
2026-05-06 00:28 39.83480 -73.55020 25827 ft 410 kts 224°
2026-05-06 00:28 39.81333 -73.57408 26187 ft 413 kts 224°
2026-05-06 00:29 39.79145 -73.59844 26561 ft 416 kts 224°
2026-05-06 00:29 39.76942 -73.62296 26931 ft 418 kts 224°
2026-05-06 00:29 39.74726 -73.64759 27293 ft 421 kts 224°
2026-05-06 00:29 39.72493 -73.67238 27664 ft 422 kts 223°
2026-05-06 00:30 39.70256 -73.69718 28061 ft 424 kts 224°
2026-05-06 00:30 39.68007 -73.72211 28437 ft 426 kts 224°
2026-05-06 00:30 39.65746 -73.74718 28784 ft 429 kts 224°
2026-05-06 00:30 39.63473 -73.77235 29130 ft 431 kts 224°
2026-05-06 00:31 39.61215 -73.79734 29452 ft 434 kts 224°
2026-05-06 00:31 39.58915 -73.82276 29793 ft 436 kts 224°
2026-05-06 00:31 39.56598 -73.84832 30106 ft 438 kts 224°
2026-05-06 00:31 39.54275 -73.87393 30444 ft 439 kts 224°
2026-05-06 00:32 39.51951 -73.89952 30834 ft 438 kts 224°
2026-05-06 00:32 39.49629 -73.92508 31226 ft 438 kts 224°
2026-05-06 00:32 39.47310 -73.95056 31600 ft 437 kts 225°
2026-05-06 00:32 39.44992 -73.97601 32003 ft 437 kts 225°
2026-05-06 00:33 39.42677 -74.00140 32407 ft 436 kts 225°
2026-05-06 00:33 39.40394 -74.02641 32832 ft 435 kts 225°
2026-05-06 00:33 39.38090 -74.05163 33270 ft 434 kts 225°
2026-05-06 00:33 39.35788 -74.07677 33662 ft 433 kts 226°
2026-05-06 00:34 39.33487 -74.10189 34043 ft 433 kts 226°
2026-05-06 00:34 39.31187 -74.12698 34394 ft 433 kts 226°
2026-05-06 00:34 39.28887 -74.15208 34752 ft 432 kts 226°
2026-05-06 00:34 39.26590 -74.17709 35088 ft 432 kts 226°
2026-05-06 00:35 39.24293 -74.20204 35427 ft 431 kts 226°
2026-05-06 00:35 39.21999 -74.22697 35744 ft 431 kts 226°
2026-05-06 00:35 39.19735 -74.25154 35958 ft 432 kts 226°
2026-05-06 00:36 39.15137 -74.30143 35994 ft 433 kts 226°
2026-05-06 00:36 39.10527 -74.35140 36011 ft 433 kts 226°
2026-05-06 00:37 39.05911 -74.40129 36006 ft 433 kts 226°
2026-05-06 00:37 39.01291 -74.45117 36005 ft 433 kts 226°
2026-05-06 00:38 38.96668 -74.50094 35989 ft 434 kts 226°
2026-05-06 00:38 38.92097 -74.55067 35990 ft 433 kts 227°
2026-05-06 00:39 38.87651 -74.60262 35996 ft 432 kts 229°
2026-05-06 00:39 38.83261 -74.65524 35991 ft 432 kts 229°
2026-05-06 00:40 38.78842 -74.70751 35981 ft 432 kts 229°
2026-05-06 00:40 38.74379 -74.75925 35989 ft 434 kts 227°
2026-05-06 00:41 38.69729 -74.80887 35990 ft 436 kts 225°
2026-05-06 00:41 38.64999 -74.85676 36009 ft 437 kts 224°
2026-05-06 00:42 38.60253 -74.90520 35998 ft 436 kts 225°
2026-05-06 00:42 38.55544 -74.95410 35997 ft 436 kts 225°
2026-05-06 00:43 38.50858 -75.00334 36014 ft 435 kts 227°
2026-05-06 00:43 38.46296 -75.05403 36025 ft 435 kts 227°
2026-05-06 00:44 38.41542 -75.10231 36013 ft 438 kts 223°
2026-05-06 00:44 38.36629 -75.14773 36007 ft 440 kts 222°
2026-05-06 00:45 38.31675 -75.19338 36013 ft 439 kts 223°
2026-05-06 00:45 38.26769 -75.23970 36020 ft 439 kts 223°
2026-05-06 00:45 38.24323 -75.26302 35785 ft 439 kts 223°
2026-05-06 00:46 38.21879 -75.28634 35484 ft 439 kts 223°
2026-05-06 00:46 38.19435 -75.30957 35188 ft 439 kts 223°
2026-05-06 00:46 38.16986 -75.33272 34892 ft 440 kts 223°
2026-05-06 00:46 38.14528 -75.35589 34580 ft 440 kts 223°
2026-05-06 00:47 38.12066 -75.37903 34293 ft 440 kts 223°
2026-05-06 00:47 38.09602 -75.40212 34038 ft 440 kts 222°
2026-05-06 00:47 38.07140 -75.42520 33989 ft 440 kts 223°
2026-05-06 00:48 38.02514 -75.47504 34019 ft 434 kts 229°
2026-05-06 00:48 37.98120 -75.52674 34001 ft 434 kts 229°
2026-05-06 00:49 37.93680 -75.57877 34025 ft 435 kts 228°
2026-05-06 00:49 37.89230 -75.63071 34026 ft 435 kts 228°
2026-05-06 00:50 37.84781 -75.68265 34026 ft 435 kts 228°
2026-05-06 00:50 37.80327 -75.73451 34026 ft 435 kts 228°
2026-05-06 00:51 37.75870 -75.78628 33996 ft 436 kts 228°
2026-05-06 00:51 37.73636 -75.81218 33722 ft 435 kts 228°
2026-05-06 00:51 37.71412 -75.83803 33454 ft 434 kts 228°
2026-05-06 00:51 37.69220 -75.86347 33190 ft 435 kts 228°
2026-05-06 00:52 37.66992 -75.88927 32926 ft 435 kts 228°
2026-05-06 00:52 37.64757 -75.91506 32664 ft 436 kts 228°
2026-05-06 00:52 37.62518 -75.94091 32407 ft 436 kts 228°
2026-05-06 00:52 37.60345 -75.96750 32147 ft 433 kts 233°
2026-05-06 00:53 37.58439 -75.99669 31896 ft 431 kts 236°
2026-05-06 00:53 37.56558 -76.02622 31644 ft 432 kts 236°
2026-05-06 00:53 37.54669 -76.05575 31396 ft 433 kts 236°
2026-05-06 00:53 37.52770 -76.08524 31140 ft 434 kts 236°
2026-05-06 00:54 37.50859 -76.11472 30906 ft 435 kts 236°
2026-05-06 00:54 37.48971 -76.14387 30659 ft 435 kts 236°
2026-05-06 00:54 37.47068 -76.17328 30419 ft 432 kts 235°
2026-05-06 00:54 37.45174 -76.20247 30187 ft 429 kts 235°
2026-05-06 00:55 37.43292 -76.23143 29727 ft 424 kts 235°
2026-05-06 00:55 37.41440 -76.25998 29109 ft 419 kts 234°
2026-05-06 00:55 37.39614 -76.28823 28505 ft 413 kts 234°
2026-05-06 00:55 37.37812 -76.31606 27916 ft 408 kts 234°
2026-05-06 00:56 37.36028 -76.34358 27328 ft 404 kts 234°
2026-05-06 00:56 37.34288 -76.37044 26721 ft 400 kts 234°
2026-05-06 00:56 37.32536 -76.39740 26139 ft 397 kts 233°
2026-05-06 00:56 37.30794 -76.42410 25560 ft 393 kts 233°
2026-05-06 00:57 37.29073 -76.45058 24991 ft 390 kts 233°
2026-05-06 00:57 37.27364 -76.47685 24430 ft 387 kts 232°
2026-05-06 00:57 37.25667 -76.50282 24095 ft 382 kts 232°
2026-05-06 00:57 37.23988 -76.52875 23990 ft 382 kts 233°
2026-05-06 00:58 37.22320 -76.55474 24000 ft 383 kts 233°
2026-05-06 00:58 37.20652 -76.58085 23998 ft 383 kts 233°
2026-05-06 00:58 37.19007 -76.60662 23984 ft 383 kts 233°
2026-05-06 00:58 37.17317 -76.63307 23994 ft 384 kts 233°
2026-05-06 00:59 37.15667 -76.65888 23997 ft 384 kts 233°
2026-05-06 00:59 37.13991 -76.68501 23998 ft 385 kts 233°
2026-05-06 00:59 37.12311 -76.71109 23996 ft 385 kts 233°
2026-05-06 00:59 37.10628 -76.73717 23998 ft 385 kts 233°
2026-05-06 01:00 37.08945 -76.76322 24001 ft 385 kts 233°
2026-05-06 01:00 37.07263 -76.78925 24004 ft 385 kts 233°
2026-05-06 01:00 37.05581 -76.81533 24025 ft 385 kts 233°
2026-05-06 01:00 37.03904 -76.84137 24023 ft 385 kts 233°
2026-05-06 01:01 37.02223 -76.86746 24024 ft 385 kts 233°
2026-05-06 01:01 37.00565 -76.89312 24030 ft 385 kts 233°
2026-05-06 01:01 36.98882 -76.91909 23783 ft 384 kts 233°
2026-05-06 01:01 36.97181 -76.94536 22659 ft 393 kts 233°
2026-05-06 01:02 36.95474 -76.97169 22256 ft 384 kts 232°
2026-05-06 01:02 36.93804 -76.99733 21999 ft 377 kts 232°
2026-05-06 01:02 36.92152 -77.02266 21740 ft 375 kts 232°
2026-05-06 01:02 36.90511 -77.04783 21539 ft 373 kts 232°
2026-05-06 01:03 36.88867 -77.07299 21305 ft 373 kts 232°
2026-05-06 01:03 36.87259 -77.09767 21015 ft 371 kts 232°
2026-05-06 01:03 36.85635 -77.12262 20712 ft 370 kts 232°
2026-05-06 01:03 36.84015 -77.14748 20412 ft 368 kts 232°
2026-05-06 01:04 36.82400 -77.17222 20115 ft 367 kts 232°
2026-05-06 01:04 36.80790 -77.19683 19824 ft 366 kts 232°
2026-05-06 01:04 36.79183 -77.22137 19542 ft 364 kts 232°
2026-05-06 01:04 36.77578 -77.24571 19248 ft 363 kts 232°
2026-05-06 01:05 36.75967 -77.26984 18962 ft 361 kts 232°
2026-05-06 01:05 36.74445 -77.29248 18693 ft 360 kts 231°
2026-05-06 01:05 36.72837 -77.31633 18398 ft 358 kts 231°
2026-05-06 01:05 36.71238 -77.34004 18090 ft 357 kts 231°
2026-05-06 01:06 36.69643 -77.36370 17800 ft 355 kts 231°
2026-05-06 01:06 36.68056 -77.38721 17520 ft 354 kts 231°
2026-05-06 01:06 36.66476 -77.41060 17236 ft 352 kts 231°
2026-05-06 01:06 36.64904 -77.43392 16956 ft 351 kts 231°
2026-05-06 01:07 36.63361 -77.45682 16676 ft 349 kts 231°
2026-05-06 01:07 36.61804 -77.47993 16393 ft 348 kts 231°
2026-05-06 01:07 36.60251 -77.50295 16115 ft 346 kts 231°
2026-05-06 01:07 36.58704 -77.52586 15837 ft 345 kts 231°
2026-05-06 01:08 36.57161 -77.54863 15553 ft 344 kts 231°
2026-05-06 01:08 36.55620 -77.57136 15275 ft 343 kts 231°
2026-05-06 01:08 36.54086 -77.59403 15006 ft 342 kts 231°
2026-05-06 01:08 36.52561 -77.61658 14729 ft 339 kts 231°
2026-05-06 01:09 36.51065 -77.63864 14462 ft 338 kts 231°
2026-05-06 01:09 36.49550 -77.66095 14187 ft 337 kts 231°
2026-05-06 01:09 36.48043 -77.68313 13920 ft 335 kts 231°
2026-05-06 01:09 36.46542 -77.70520 13632 ft 334 kts 231°
2026-05-06 01:10 36.45046 -77.72718 13359 ft 332 kts 231°
2026-05-06 01:10 36.43555 -77.74906 13095 ft 331 kts 231°
2026-05-06 01:10 36.42073 -77.77086 12827 ft 330 kts 231°
2026-05-06 01:10 36.40598 -77.79255 12562 ft 328 kts 231°
2026-05-06 01:11 36.39127 -77.81414 12290 ft 327 kts 231°
2026-05-06 01:11 36.37679 -77.83534 12028 ft 326 kts 231°
2026-05-06 01:11 36.36218 -77.85673 11762 ft 325 kts 230°
2026-05-06 01:11 36.34760 -77.87810 11503 ft 324 kts 230°
2026-05-06 01:12 36.33311 -77.89934 11248 ft 322 kts 230°
2026-05-06 01:12 36.31864 -77.92049 11002 ft 321 kts 230°
2026-05-06 01:12 36.30421 -77.94154 10740 ft 319 kts 230°
2026-05-06 01:12 36.29001 -77.96223 10537 ft 308 kts 230°
2026-05-06 01:13 36.27642 -77.98205 10422 ft 295 kts 230°
2026-05-06 01:13 36.26341 -78.00104 10302 ft 283 kts 230°
2026-05-06 01:13 36.25088 -78.01934 10142 ft 275 kts 230°
2026-05-06 01:13 36.23883 -78.03693 10001 ft 268 kts 230°
2026-05-06 01:14 36.22041 -78.07698 9648 ft 268 kts 244°
2026-05-06 01:14 36.21271 -78.09795 9387 ft 267 kts 244°
2026-05-06 01:14 36.20513 -78.11882 9119 ft 265 kts 245°
2026-05-06 01:15 36.19798 -78.13975 8871 ft 264 kts 246°
2026-05-06 01:15 36.19103 -78.16070 8615 ft 263 kts 246°
2026-05-06 01:15 36.18417 -78.18159 8356 ft 261 kts 246°
2026-05-06 01:15 36.17730 -78.20236 8100 ft 260 kts 246°
2026-05-06 01:16 36.17042 -78.22299 7850 ft 258 kts 246°
2026-05-06 01:16 36.16358 -78.24349 7592 ft 258 kts 245°
2026-05-06 01:16 36.15669 -78.26407 7341 ft 259 kts 245°
2026-05-06 01:16 36.15023 -78.28448 7090 ft 258 kts 251°
2026-05-06 01:17 36.14623 -78.30618 6846 ft 259 kts 255°
2026-05-06 01:17 36.14239 -78.32793 6590 ft 258 kts 255°
2026-05-06 01:17 36.13858 -78.34935 6433 ft 250 kts 254°
2026-05-06 01:17 36.13499 -78.36964 6336 ft 232 kts 254°
2026-05-06 01:18 36.13160 -78.38869 6239 ft 221 kts 254°
2026-05-06 01:18 36.12835 -78.40682 6141 ft 211 kts 253°
2026-05-06 01:18 36.12475 -78.42436 6047 ft 211 kts 245°
2026-05-06 01:18 36.11763 -78.44004 5951 ft 209 kts 234°
2026-05-06 01:19 36.10949 -78.45492 5853 ft 209 kts 234°
2026-05-06 01:19 36.10153 -78.46961 5743 ft 208 kts 234°
2026-05-06 01:19 36.09351 -78.48448 5637 ft 207 kts 234°
2026-05-06 01:19 36.08551 -78.49934 5541 ft 208 kts 235°
2026-05-06 01:20 36.07749 -78.51420 5441 ft 208 kts 234°
2026-05-06 01:20 36.06949 -78.52901 5336 ft 207 kts 234°
2026-05-06 01:20 36.06151 -78.54378 5240 ft 206 kts 234°
2026-05-06 01:20 36.05361 -78.55850 5139 ft 205 kts 235°
2026-05-06 01:21 36.04505 -78.57259 4941 ft 204 kts 229°
2026-05-06 01:21 36.03548 -78.58544 4690 ft 202 kts 225°
2026-05-06 01:21 36.02582 -78.59761 4427 ft 200 kts 224°
2026-05-06 01:21 36.01626 -78.60951 4167 ft 189 kts 224°
2026-05-06 01:22 36.00733 -78.62060 3948 ft 175 kts 224°
2026-05-06 01:22 35.99895 -78.63101 3707 ft 168 kts 223°
2026-05-06 01:22 35.99083 -78.64108 3491 ft 163 kts 223°
2026-05-06 01:22 35.98294 -78.65087 3280 ft 158 kts 223°
2026-05-06 01:23 35.97527 -78.66039 3073 ft 154 kts 222°
2026-05-06 01:23 35.96799 -78.66943 2864 ft 142 kts 220°
2026-05-06 01:23 35.96122 -78.67782 2692 ft 136 kts 221°
2026-05-06 01:23 35.95472 -78.68588 2513 ft 133 kts 220°
2026-05-06 01:24 35.94819 -78.69396 2338 ft 133 kts 220°
2026-05-06 01:24 35.94171 -78.70198 2156 ft 133 kts 218°
2026-05-06 01:24 35.93523 -78.71001 1971 ft 131 kts 217°
2026-05-06 01:24 35.92881 -78.71796 1804 ft 131 kts 217°
2026-05-06 01:25 35.92236 -78.72585 1588 ft 134 kts 219°
2026-05-06 01:25 35.91581 -78.73365 1469 ft 131 kts 218°
2026-05-06 01:25 35.90934 -78.74194 1285 ft 132 kts 221°
2026-05-06 01:25 35.90295 -78.74998 1166 ft 132 kts 220°
2026-05-06 01:26 35.89858 -78.75529 1011 ft 135 kts 220°
2026-05-06 01:26 35.89015 -78.76590 832 ft 128 kts 218°
2026-05-06 01:26 35.88350 -78.77389 650 ft 137 kts 221°
2026-05-06 01:26 35.87699 -78.78207 459 ft 131 kts 221°
2026-05-06 01:27 35.87118 -78.78904 428 ft 93 kts 224°
2026-05-06 01:27 35.86850 -78.79258 433 ft 23 kts 225°
2026-05-06 01:27 35.86777 -78.79422 433 ft 17 kts 252°
2026-05-06 01:27 35.86797 -78.79548 431 ft 18 kts 313°
2026-05-06 01:28 35.86894 -78.79665 433 ft 21 kts 315°
2026-05-06 01:28 35.86965 -78.79752 417 ft 23 kts 315°
2026-05-06 01:28 35.87075 -78.79887 409 ft 23 kts 315°
2026-05-06 01:28 35.87189 -78.79993 404 ft 18 kts 329°
2026-05-06 01:29 35.87267 -78.80043 396 ft 10 kts 335°
2026-05-06 01:29 35.87345 -78.80079 392 ft 13 kts 345°
2026-05-06 01:29 35.87430 -78.80025 391 ft 16 kts 44°
2026-05-06 01:29 35.87502 -78.79935 391 ft 10 kts 45°
2026-05-06 01:30 35.87510 -78.79878 391 ft 8 kts 122°
2026-05-06 01:30 35.87471 -78.79813 392 ft 11 kts 129°
2026-05-06 01:30 35.87410 -78.79738 392 ft 14 kts 136°
2026-05-06 01:30 35.87381 -78.79669 392 ft 9 kts 84°
2026-05-06 01:31 35.87426 -78.79602 392 ft 11 kts 45°
2026-05-06 01:31 35.87464 -78.79556 392 ft 4 kts 45°
2026-05-06 01:32 35.87468 -78.79554 392 ft 1 kts 24°
2026-05-06 01:32 35.87479 -78.79559 392 ft 3 kts 336°
2026-05-06 01:32 35.87498 -78.79579 392 ft 3 kts 316°
2026-05-06 01:32 35.87505 -78.79588 392 ft 0 kts 316°